Stündliche Wetter Juankoski

Heute, 5 März, Freitag

Zeit Temperatur Niederschläge Wind Luftdruck Luftfeuchtigkeit
00:00 -13°C° 0 mm 3 m/S 746 mmHg 94%
01:00 -14°C° 0 mm 3 m/S 746 mmHg 94%
02:00 -13°C° 0 mm 2 m/S 746 mmHg 95%
03:00 -14°C° 0 mm 2 m/S 746 mmHg 95%
04:00 -14°C° 0 mm 2 m/S 747 mmHg 95%
05:00 -14°C° 0 mm 2 m/S 747 mmHg 95%
06:00 -14°C° 0 mm 2 m/S 747 mmHg 95%
07:00 -15°C° 0 mm 3 m/S 748 mmHg 95%
08:00 -15°C° 0 mm 3 m/S 748 mmHg 95%
09:00 -14°C° 0 mm 3 m/S 748 mmHg 92%
10:00 -13°C° 0 mm 3 m/S 749 mmHg 90%
11:00 -9°C° 0 mm 2 m/S 749 mmHg 87%
12:00 -10°C° 0 mm 3 m/S 750 mmHg 86%
13:00 -9°C° 0 mm 3 m/S 750 mmHg 85%
14:00 -8°C° 0 mm 3 m/S 750 mmHg 83%
15:00 -8°C° 0 mm 3 m/S 751 mmHg 85%
16:00 -9°C° 0 mm 3 m/S 751 mmHg 87%
17:00 -8°C° 0 mm 2 m/S 751 mmHg 89%
18:00 -10°C° 0 mm 2 m/S 751 mmHg 90%
19:00 -12°C° 0 mm 2 m/S 752 mmHg 92%
20:00 -13°C° 0 mm 2 m/S 752 mmHg 93%
21:00 -13°C° 0 mm 2 m/S 752 mmHg 94%
22:00 -12°C° 0 mm 1 m/S 752 mmHg 94%
23:00 -13°C° 0 mm 1 m/S 752 mmHg 95%

Morgen, 6 März, Samstag

Zeit Temperatur Niederschläge Wind Luftdruck Luftfeuchtigkeit
00:00 -13°C° 0 mm 1 m/S 752 mmHg 95%
01:00 -13°C° 0 mm 1 m/S 752 mmHg 95%
02:00 -13°C° 0 mm 1 m/S 751 mmHg 95%
03:00 -15°C° 0 mm 2 m/S 751 mmHg 95%
04:00 -15°C° 0 mm 2 m/S 750 mmHg 95%
05:00 -15°C° 0 mm 2 m/S 749 mmHg 95%
06:00 -15°C° 0 mm 3 m/S 748 mmHg 93%
07:00 -14°C° 0 mm 3 m/S 747 mmHg 92%
08:00 -14°C° 0 mm 4 m/S 746 mmHg 90%
09:00 -12°C° 0.2 mm 4 m/S 745 mmHg 91%
10:00 -11°C° 0.2 mm 5 m/S 743 mmHg 92%
11:00 -10°C° 0.2 mm 6 m/S 742 mmHg 92%
12:00 -9°C° 0.8 mm 6 m/S 740 mmHg 93%
13:00 -9°C° 0.8 mm 6 m/S 738 mmHg 93%
14:00 -8°C° 0.8 mm 7 m/S 737 mmHg 93%
15:00 -6°C° 0.9 mm 6 m/S 735 mmHg 94%
16:00 -5°C° 0.9 mm 6 m/S 733 mmHg 95%
17:00 -4°C° 0.9 mm 6 m/S 732 mmHg 97%
18:00 -5°C° 0.9 mm 6 m/S 732 mmHg 86%
19:00 -8°C° 0.9 mm 7 m/S 731 mmHg 75%
20:00 -11°C° 0.9 mm 7 m/S 731 mmHg 64%
21:00 -12°C° 0 mm 6 m/S 731 mmHg 69%
22:00 -14°C° 0 mm 4 m/S 731 mmHg 73%
23:00 -15°C° 0 mm 3 m/S 731 mmHg 77%

übermorgen, 7 März, Sonntag

Zeit Temperatur Niederschläge Wind Luftdruck Luftfeuchtigkeit
00:00 -15°C° 0 mm 3 m/S 731 mmHg 80%
01:00 -15°C° 0 mm 3 m/S 731 mmHg 83%
02:00 -16°C° 0 mm 3 m/S 731 mmHg 85%
03:00 -15°C° 0 mm 3 m/S 730 mmHg 88%
04:00 -15°C° 0 mm 3 m/S 730 mmHg 92%
05:00 -14°C° 0 mm 2 m/S 730 mmHg 95%
06:00 -14°C° 0.2 mm 2 m/S 730 mmHg 95%
07:00 -13°C° 0.2 mm 2 m/S 730 mmHg 95%
08:00 -13°C° 0.2 mm 2 m/S 731 mmHg 95%
09:00 -13°C° 0 mm 2 m/S 732 mmHg 92%
10:00 -13°C° 0 mm 3 m/S 733 mmHg 89%
11:00 -13°C° 0 mm 3 m/S 734 mmHg 86%
12:00 -12°C° 0 mm 3 m/S 735 mmHg 85%
13:00 -12°C° 0 mm 3 m/S 736 mmHg 85%
14:00 -10°C° 0 mm 3 m/S 737 mmHg 84%
15:00 -12°C° 0.1 mm 4 m/S 739 mmHg 85%
16:00 -13°C° 0.1 mm 5 m/S 740 mmHg 86%
17:00 -14°C° 0.1 mm 5 m/S 741 mmHg 87%
18:00 -14°C° 0 mm 5 m/S 742 mmHg 87%
19:00 -15°C° 0 mm 5 m/S 743 mmHg 87%
20:00 -17°C° 0 mm 5 m/S 744 mmHg 87%
21:00 -18°C° 0 mm 5 m/S 745 mmHg 88%
22:00 -18°C° 0 mm 4 m/S 746 mmHg 89%
23:00 -19°C° 0 mm 4 m/S 747 mmHg 90%

8 März, Montag

Zeit Temperatur Niederschläge Wind Luftdruck Luftfeuchtigkeit
00:00 -20°C° 0 mm 4 m/S 747 mmHg 90%
01:00 -22°C° 0 mm 4 m/S 748 mmHg 91%
02:00 -23°C° 0 mm 4 m/S 749 mmHg 91%
03:00 -23°C° 0 mm 4 m/S 750 mmHg 91%
04:00 -23°C° 0 mm 3 m/S 750 mmHg 91%
05:00 -24°C° 0 mm 3 m/S 751 mmHg 91%
06:00 -24°C° 0 mm 3 m/S 751 mmHg 91%
07:00 -24°C° 0 mm 3 m/S 752 mmHg 91%
08:00 -24°C° 0 mm 3 m/S 752 mmHg 90%
09:00 -23°C° 0 mm 3 m/S 753 mmHg 88%
10:00 -21°C° 0 mm 3 m/S 753 mmHg 86%
11:00 -19°C° 0 mm 3 m/S 754 mmHg 84%
12:00 -18°C° 0 mm 3 m/S 754 mmHg 83%
13:00 -17°C° 0 mm 3 m/S 754 mmHg 83%
14:00 -15°C° 0 mm 3 m/S 755 mmHg 82%
15:00 -15°C° 0 mm 2 m/S 755 mmHg 85%
16:00 -15°C° 0 mm 2 m/S 755 mmHg 88%
17:00 -14°C° 0 mm 1 m/S 755 mmHg 90%
18:00 -15°C° 0 mm 1 m/S 755 mmHg 92%
19:00 -16°C° 0 mm 1 m/S 756 mmHg 93%
20:00 -17°C° 0 mm 1 m/S 756 mmHg 94%
21:00 -18°C° 0 mm 1 m/S 756 mmHg 94%
22:00 -18°C° 0 mm 1 m/S 757 mmHg 95%
23:00 -19°C° 0 mm 0 m/S 757 mmHg 95%

9 März, Dienstag

Zeit Temperatur Niederschläge Wind Luftdruck Luftfeuchtigkeit
00:00 -19°C° 0 mm 1 m/S 757 mmHg 94%
01:00 -19°C° 0 mm 1 m/S 757 mmHg 94%
02:00 -18°C° 0 mm 1 m/S 757 mmHg 94%
03:00 -20°C° 0 mm 2 m/S 756 mmHg 94%
04:00 -19°C° 0 mm 2 m/S 756 mmHg 93%
05:00 -18°C° 0 mm 2 m/S 756 mmHg 93%
06:00 -18°C° 0 mm 3 m/S 755 mmHg 92%
07:00 -17°C° 0 mm 3 m/S 755 mmHg 92%
08:00 -17°C° 0 mm 4 m/S 754 mmHg 91%
09:00 -15°C° 0 mm 4 m/S 754 mmHg 90%
10:00 -14°C° 0 mm 4 m/S 753 mmHg 89%
11:00 -12°C° 0 mm 5 m/S 753 mmHg 88%
12:00 -11°C° 0 mm 5 m/S 752 mmHg 86%
13:00 -10°C° 0 mm 5 m/S 751 mmHg 85%
14:00 -7°C° 0 mm 5 m/S 751 mmHg 83%
15:00 -7°C° 0.5 mm 5 m/S 750 mmHg 86%
16:00 -8°C° 0.5 mm 6 m/S 749 mmHg 90%
17:00 -8°C° 0.5 mm 6 m/S 748 mmHg 93%
18:00 -8°C° 0.5 mm 6 m/S 748 mmHg 94%
19:00 -7°C° 0.5 mm 5 m/S 748 mmHg 94%
20:00 -6°C° 0.5 mm 5 m/S 747 mmHg 94%
21:00 -5°C° 0.3 mm 4 m/S 747 mmHg 95%
22:00 -5°C° 0.3 mm 4 m/S 747 mmHg 95%
23:00 -6°C° 0.3 mm 3 m/S 747 mmHg 95%

10 März, Mittwoch

Zeit Temperatur Niederschläge Wind Luftdruck Luftfeuchtigkeit
00:00 -6°C° 0.1 mm 3 m/S 747 mmHg 96%
01:00 -5°C° 0.1 mm 2 m/S 747 mmHg 96%
02:00 -5°C° 0.1 mm 2 m/S 747 mmHg 96%
03:00 -6°C° 0 mm 2 m/S 747 mmHg 96%
04:00 -6°C° 0 mm 2 m/S 747 mmHg 97%
05:00 -6°C° 0 mm 1 m/S 747 mmHg 97%
06:00 -6°C° 0 mm 1 m/S 747 mmHg 97%
07:00 -4°C° 0 mm 1 m/S 748 mmHg 97%
08:00 -5°C° 0 mm 0 m/S 748 mmHg 96%
09:00 -4°C° 0 mm 0 m/S 748 mmHg 95%
10:00 -3°C° 0 mm 1 m/S 748 mmHg 94%
11:00 -2°C° 0 mm 1 m/S 748 mmHg 93%
12:00 -1°C° 0.1 mm 1 m/S 748 mmHg 93%
13:00 -3°C° 0.1 mm 2 m/S 748 mmHg 93%
14:00 -2°C° 0.1 mm 2 m/S 748 mmHg 93%
15:00 -2°C° 0.2 mm 2 m/S 747 mmHg 94%
16:00 -3°C° 0.2 mm 2 m/S 747 mmHg 94%
17:00 -3°C° 0.2 mm 2 m/S 746 mmHg 95%
18:00 -4°C° 0.1 mm 3 m/S 746 mmHg 95%
19:00 -4°C° 0.1 mm 3 m/S 745 mmHg 95%
20:00 -4°C° 0.1 mm 3 m/S 745 mmHg 96%
21:00 -4°C° 0.2 mm 3 m/S 744 mmHg 96%
22:00 -5°C° 0.2 mm 3 m/S 743 mmHg 96%
23:00 -5°C° 0.2 mm 4 m/S 743 mmHg 96%
Mehr zeigen

Wir brauchen deine Erlaubnis

Meteoprog und unser Service Anbieter werden persönliche Daten aufbewahren, so wie Cookies, Geräte Bezeichnung oder ähnliche Technologien von deinem Gerät und Prozess, so wie Persönliche Daten Inhalte und Werbungen, genauso wie social Media und den Verkehr zu analysieren.

  • Aufbewahrung und/oder Zugang zu deiner Geräte Informationen.

    Cookies, Geräte Bezeichnung oder andere Informationen, können aufbewahrt oder Zugang zu deinem Gerät erhalten, für den Grund, der oben angegeben wird.

  • Personalisierte Werbung und Inhalte, Messungen, Einblick in das Publikum und Produkt Entwicklung.

    Werbungen und Inhalte können personalisiert werden, basierend auf ein Profil. Mehr Daten können besser personalisierte Werbungen und Inhalte hinzufügen. Werbung und Inhalte können gezeigt und gemessen werden. Einblicke über das Publikum, welche die Werbung gesehen haben und den Inhalt, können abgeleitet werden. So wie Daten können genutzt werden, um es zu verbessern oder die Benutzer Erfahrung zu verbessern das System und die Software.

Wenn du “Ich stimme zu” klickst, erlaubst du uns, die Cookies zu benutzen die Geräte Bezeichnung, den Web oder ähnliche Technologien zu benutzen. Deine Settings, können in deinem Gerät bei deinem Browser geändert werden.

Für den bestimmten Zweck, berechtigten Interessen beruhen darauf, mehr als auf den Inhalt. Du kannst mehr darüber in unseren Privaten und Cookie Politik lesen.